Anchorage, AK

10:39 PM AKDT on March 24, 2017 (GMT -0800)
Ted Stevens Anchorage Int'l Airport

Weather History for PANC - October, 2013

Change the Weather History Date:

Tuesday, October 8, 2013

  Actual Average Record
Temperature  
Mean Temperature 46 °F 39 °F  
Max Temperature 49 °F 45 °F 57 °F (1993)
Min Temperature 42 °F 33 °F 16 °F (1958)
Degree Days  
Heating Degree Days 19    
Month to date heating degree days 171  
Since 1 July heating degree days 1019  
Cooling Degree Days 0    
Month to date cooling degree days 0  
Year to date cooling degree days 21  
Moisture  
Dew Point 37 °F    
Average Humidity 71    
Maximum Humidity 89    
Minimum Humidity 52    
Precipitation  
Precipitation 0.12 in 0.08 in 0.68 in (1980)
Month to date precipitation 0.79 0.70  
Year to date precipitation 20.00 12.98  
Snow  
Snow 0.00 in 0.20 in 5.50 in (1980)
Month to date snowfall 0.0 1.2  
Since 1 July snowfall T 1.6  
Since 1 September snowfall T 1.6  
Snow Depth 0.00 in    
Sea Level Pressure  
Sea Level Pressure 29.21 in    
Wind  
Wind Speed 13 mph (SSE)    
Max Wind Speed 23 mph    
Max Gust Speed 45 mph    
Visibility 9 miles    
Events Rain    
T = Trace of Precipitation, MM = Missing Value Source: NWS Daily Summary

Daily Weather History Graph

Daily Weather History Graph

Search for Another Location

Airport or City:

Trip Planner

Search our weather history database for the weather conditions in past years. The results will help you decide how hot, cold, wet, or windy it might be!

Date:

Astronomy

Oct. 08, 2013 Rise Set
Actual Time 8:25 AM AKDT 7:08 PM AKDT
Civil Twilight 7:42 AM AKDT 7:51 PM AKDT
Nautical Twilight 6:52 AM AKDT 8:41 PM AKDT
Astronomical Twilight 6:00 AM AKDT 9:32 PM AKDT
Moon 1:39 PM AKDT (10/8) 8:43 PM AKDT (10/8)
Length of Visible Light 12h 09m
Length of Day
10h 42m
Waxing Crescent, 17% of the Moon is Illuminated
Oct 8
Waxing Crescent
Oct 11
First Quarter
Oct 18
Full
Oct 26
Last Quarter
Nov 3
New

Hourly Weather History & Observations

Time (AKDT) Temp. Windchill Dew Point Humidity Pressure Visibility Wind Dir Wind Speed Gust Speed Precip Events Conditions
12:53 AM 44.1 °F - 37.9 °F 79% 29.68 in 10.0 mi Calm Calm - 0.01 in Rain Light Rain
1:53 AM 44.1 °F 41.5 °F 37.9 °F 79% 29.62 in 10.0 mi Variable 4.6 mph - 0.01 in Rain Light Rain
2:53 AM 46.9 °F - 36.0 °F 66% 29.58 in 10.0 mi SE 16.1 mph 27.6 mph 0.01 in Rain Light Rain
3:53 AM 48.0 °F - 34.0 °F 58% 29.52 in 10.0 mi SE 16.1 mph 26.5 mph 0.00 in Rain Light Rain
4:53 AM 48.0 °F - 34.0 °F 58% 29.47 in 10.0 mi SE 15.0 mph 25.3 mph 0.00 in Rain Light Rain
5:53 AM 48.9 °F - 34.0 °F 56% 29.40 in 10.0 mi Variable 6.9 mph 21.9 mph 0.00 in Rain Light Rain
6:53 AM 50.0 °F - 34.0 °F 54% 29.36 in 10.0 mi ESE 6.9 mph 21.9 mph 0.00 in Rain Light Rain
7:53 AM 48.0 °F - 35.1 °F 61% 29.31 in 10.0 mi SE 21.9 mph 44.9 mph 0.00 in Rain Light Rain
8:53 AM 48.9 °F - 36.0 °F 61% 29.26 in 10.0 mi East 8.1 mph 23.0 mph 0.00 in Rain Light Rain
9:19 AM 44.6 °F 42.2 °F 39.2 °F 81% 29.28 in 10.0 mi Variable 4.6 mph 18.4 mph 0.00 in Rain Light Rain
9:53 AM 44.1 °F 36.2 °F 39.9 °F 85% 29.29 in 7.0 mi NNW 18.4 mph 29.9 mph 0.01 in Rain Light Rain
10:53 AM 46.0 °F 41.0 °F 37.9 °F 73% 29.26 in 7.0 mi ESE 10.4 mph 21.9 mph 0.03 in Rain Light Rain
11:53 AM 43.0 °F 36.4 °F 39.0 °F 86% 29.24 in 7.0 mi North 12.7 mph - 0.01 in Rain Light Rain
12:53 PM 45.0 °F 37.6 °F 37.0 °F 74% 29.19 in 10.0 mi SE 17.3 mph 27.6 mph 0.00 in Rain Light Rain
1:53 PM 45.0 °F 36.4 °F 36.0 °F 71% 29.13 in 10.0 mi SE 23.0 mph 35.7 mph 0.00 in Rain Light Rain
2:53 PM 46.9 °F - 35.1 °F 63% 29.08 in 10.0 mi SSE 24.2 mph 34.5 mph 0.00 in Rain Light Rain
3:09 PM 46.4 °F 38.5 °F 35.6 °F 66% 29.07 in 10.0 mi SE 21.9 mph 34.5 mph 0.00 in Rain Light Rain
3:53 PM 46.9 °F - 34.0 °F 61% 29.06 in 10.0 mi SSE 26.5 mph 41.4 mph 0.00 in   Overcast
4:53 PM 45.0 °F 37.6 °F 37.0 °F 74% 29.06 in 10.0 mi SSE 17.3 mph 32.2 mph 0.01 in Rain Rain
5:39 PM 44.6 °F 36.6 °F 37.4 °F 76% 29.06 in 6.0 mi SE 19.6 mph 31.1 mph 0.06 in Rain Rain
5:53 PM 44.1 °F 36.2 °F 37.9 °F 79% 29.06 in 5.0 mi SE 18.4 mph 28.8 mph 0.10 in Rain Rain
6:53 PM 45.0 °F 39.7 °F 39.9 °F 82% 29.07 in 10.0 mi SSW 10.4 mph - 0.08 in Rain Light Rain
7:15 PM 44.6 °F 38.8 °F 39.2 °F 81% 29.07 in 10.0 mi SW 11.5 mph - 0.01 in Rain Light Rain
7:39 PM 42.8 °F 37.5 °F 39.2 °F 87% 29.07 in 10.0 mi SW 9.2 mph - 0.03 in Rain Light Rain
7:53 PM 43.0 °F 37.7 °F 39.9 °F 89% 29.07 in 10.0 mi SW 9.2 mph - 0.03 in Rain Light Rain
8:13 PM 42.8 °F 38.6 °F 39.2 °F 87% 29.07 in 10.0 mi SW 6.9 mph - 0.01 in   Mostly Cloudy
8:31 PM 42.8 °F 39.3 °F 39.2 °F 87% 29.06 in 10.0 mi South 5.8 mph - 0.01 in   Mostly Cloudy
8:53 PM 42.1 °F - 39.0 °F 89% 29.07 in 10.0 mi Calm Calm - 0.01 in   Mostly Cloudy
9:27 PM 42.8 °F 41.1 °F 39.2 °F 87% 29.06 in 10.0 mi West 3.5 mph - N/A   Mostly Cloudy
9:53 PM 43.0 °F 39.5 °F 39.9 °F 89% 29.07 in 10.0 mi Variable 5.8 mph - N/A   Overcast
10:53 PM 43.0 °F 37.2 °F 37.0 °F 80% 29.08 in 10.0 mi SSW 10.4 mph - N/A   Overcast
11:53 PM 41.0 °F 34.7 °F 36.0 °F 82% 29.08 in 10.0 mi South 10.4 mph - N/A   Scattered Clouds